Wind_Speed
32 31 31 31 32 32 33 32 32 30 30 31 30 29 27 26 25 24 24 24 23 23 24 24 25 25 26 26 26 26 26 26 26 27 28 28 27 25 25 25 26 26 26 26
32 32 33 34 34 34 34 34 34 34 34 32 31 31 29 28 27 26 26 26 26 26 26 26 26 27 28 28 27 27 27 27 28 29 30 29 28 27 27 27 27 28 28 28
31 32 32 34 34 34 35 35 35 35 35 33 33 32 31 30 30 29 29 28 28 29 28 28 28 29 30 31 30 29 29 29 30 30 31 31 30 28 28 28 29 30 30 30
31 32 33 33 34 35 35 35 36 36 35 35 34 33 32 32 31 30 31 31 32 32 31 31 31 31 31 32 32 32 31 31 31 32 33 32 31 30 30 30 30 31 32 32
33 33 33 34 33 33 34 35 34 35 35 35 34 34 33 32 32 32 32 32 32 32 33 33 33 32 33 33 33 33 33 33 33 33 33 33 32 32 33 34 34 34 34 33
35 34 33 33 33 33 34 35 34 34 34 33 33 33 33 33 33 34 33 33 33 33 33 33 33 34 34 35 35 35 35 36 36 36 35 34 34 33 34 35 35 35 36 35
34 34 34 35 34 33 33 34 34 34 34 33 34 34 33 33 34 34 35 35 35 35 35 35 35 36 36 36 37 37 38 39 39 38 37 37 35 35 36 37 37 38 38 37
35 35 35 35 34 34 34 34 33 32 33 33 33 33 34 35 34 35 36 36 36 36 36 36 37 37 37 38 38 39 39 40 40 39 39 38 37 36 37 38 39 39 38 37
36 36 36 34 33 32 32 32 32 32 32 32 33 33 34 35 35 35 36 36 36 37 37 37 38 38 38 39 39 39 39 40 40 39 39 38 37 37 38 39 39 39 37 37
35 35 34 33 32 32 32 32 32 32 32 33 33 33 34 34 35 35 35 36 37 38 38 39 39 39 39 39 39 39 40 40 40 39 39 39 39 38 38 38 38 38 38 37
33 33 33 32 31 31 31 31 32 32 32 32 32 33 33 35 35 36 36 37 37 38 39 40 40 40 40 40 40 40 40 40 39 39 38 39 40 39 38 37 38 38 39 38
31 31 31 31 31 30 30 30 31 31 31 31 31 32 33 34 35 35 35 35 36 37 38 38 39 39 40 40 40 39 38 38 39 39 38 38 38 39 39 39 38 37 37 38
29 29 30 30 30 30 30 31 30 31 31 31 31 31 32 32 33 34 35 35 35 36 38 38 39 39 39 38 38 38 38 38 38 38 37 38 38 38 38 38 37 37 37 37
27 27 28 28 28 28 29 29 30 30 30 30 30 30 31 32 32 33 34 35 36 37 37 38 38 38 38 38 38 37 37 36 36 36 36 37 37 37 37 37 36 36 36 36
25 26 26 26 27 27 27 28 28 29 29 29 29 29 30 30 31 31 32 33 34 35 35 36 36 36 36 37 37 36 36 35 36 35 36 36 36 36 36 36 36 35 35 35
23 24 24 23 24 24 25 25 26 27 27 27 27 28 28 28 28 29 30 31 32 32 32 33 33 34 34 35 35 34 34 34 34 35 35 35 35 35 34 34 35 35 35 35
20 20 20 20 21 22 23 23 24 25 25 26 26 26 26 27 26 26 27 28 29 29 30 30 31 31 32 32 32 32 31 32 32 32 32 33 33 33 32 33 33 33 33 33
18 18 19 20 21 22 22 22 22 23 24 24 24 23 23 23 24 24 24 24 25 27 28 28 28 28 28 28 29 29 30 30 30 30 31 31 31 31 31 32 31 31 31 31
18 18 18 19 20 21 21 21 21 21 22 22 22 22 21 21 21 22 23 24 24 24 25 26 26 27 27 27 27 28 29 29 29 29 29 30 30 31 31 30 30 30 30 30
15 16 17 17 18 18 19 19 19 19 19 19 19 20 20 20 20 20 21 21 21 22 22 22 23 24 24 24 26 27 27 27 27 28 28 29 29 28 28 28 28 28 28 28
14 14 15 16 16 16 16 17 17 17 17 17 18 18 18 17 17 18 18 19 19 20 20 21 22 23 23 23 24 24 24 24 24 25 26 26 26 26 26 26 27 27 27 27
12 12 13 13 14 14 14 14 14 14 15 15 15 15 15 16 16 17 18 18 18 18 19 20 20 21 21 21 21 21 21 20 21 21 22 22 23 23 24 24 25 25 25 26
10 10 11 11 11 11 11 12 12 12 12 12 13 13 14 15 16 16 17 17 16 17 17 17 18 18 18 18 17 18 18 18 19 19 19 19 19 20 21 22 22 23 23 24
7 8 8 9 9 10 10 10 10 10 11 11 12 13 14 14 15 16 16 15 14 15 15 15 16 16 15 15 16 16 16 16 17 17 17 18 18 19 19 19 20 21 21 22
6 6 7 7 7 7 8 8 9 10 11 11 12 12 13 13 13 14 14 14 14 14 14 14 14 14 14 14 14 15 15 15 15 16 16 16 17 17 18 18 18 18 19 19
5 5 6 6 6 6 7 8 9 9 10 11 11 12 12 12 13 13 13 13 13 12 12 13 13 13 13 14 14 14 14 15 15 15 15 16 16 16 17 17 17 17 17 18
6 6 6 6 6 7 7 8 8 8 9 9 10 10 11 11 11 11 12 12 12 12 12 12 13 13 14 14 14 14 14 14 14 14 15 15 16 16 17 17 18 18 18 18
Wind_Direction
243 243 246 248 248 247 248 250 252 255 257 258 261 260 259 260 260 259 259 259 260 261 261 262 264 266 267 269 272 274 276 276 278 279 278 278 278 276 274 273 275 275 274 274
247 247 249 250 250 251 251 252 254 255 256 259 258 258 258 258 257 257 257 258 259 261 260 262 264 264 267 271 274 272 273 275 277 278 279 279 276 274 275 274 275 275 273 274
248 249 250 251 251 253 253 254 255 256 258 259 259 256 255 255 255 255 256 257 258 260 260 262 263 265 266 268 271 273 274 274 275 278 280 276 273 274 275 276 275 274 273 275
249 250 251 254 253 253 254 256 256 257 258 258 259 256 255 254 255 254 256 257 258 259 261 263 264 266 267 269 270 270 271 273 275 278 278 275 272 272 273 274 275 274 273 273
249 253 255 255 254 255 256 256 255 256 258 257 258 256 254 254 254 254 256 257 257 258 260 262 264 265 266 267 270 271 271 272 273 275 278 274 271 271 271 273 274 276 275 274
249 251 253 257 257 256 257 257 256 255 256 257 257 256 255 254 254 254 256 257 257 258 259 262 264 265 266 267 269 271 271 272 273 274 277 275 271 271 272 273 274 274 276 274
250 252 254 255 257 258 256 257 257 256 255 255 255 255 255 255 255 254 256 258 258 258 259 261 264 265 267 267 268 269 270 272 272 273 275 276 274 273 272 273 273 274 275 274
249 252 253 256 257 257 257 257 258 258 256 254 255 255 255 256 256 256 256 258 259 260 261 262 264 266 268 269 270 271 271 272 272 272 272 274 274 274 274 272 272 272 272 270
248 251 254 254 256 258 259 259 259 257 256 254 254 256 256 257 258 259 258 258 259 260 261 263 265 266 268 269 270 271 270 271 272 271 272 273 273 273 274 274 273 271 270 269
248 250 252 255 256 256 258 258 258 258 257 255 255 256 257 258 259 260 260 260 259 260 261 263 265 266 268 269 269 270 270 271 271 271 271 272 272 273 273 273 272 270 270 269
249 250 252 253 256 257 258 257 258 259 259 259 258 257 258 258 259 260 261 261 260 261 262 264 265 265 267 268 270 270 271 272 272 272 272 272 272 273 272 271 272 271 269 269
250 250 252 254 255 256 256 256 258 260 261 261 261 260 259 258 259 260 261 261 262 263 264 264 266 267 268 271 271 271 273 272 271 272 271 271 271 272 271 272 272 273 272 270
251 251 253 255 255 254 253 255 257 260 262 262 263 262 262 261 261 262 262 262 263 263 265 266 268 269 270 272 274 273 272 272 271 272 272 271 271 271 271 271 272 271 270 270
251 252 253 253 254 254 254 255 257 260 262 263 264 264 265 264 263 264 265 265 265 266 267 268 269 268 268 271 273 272 271 271 271 271 272 272 272 271 272 272 272 272 272 272
250 252 253 252 253 255 255 256 258 261 263 264 263 263 264 265 264 265 266 266 266 267 268 268 269 269 269 271 271 270 269 270 270 270 270 270 271 272 272 273 274 273 272 272
249 251 251 251 253 255 256 258 260 262 264 265 266 264 265 267 267 267 267 268 267 267 268 268 267 269 271 271 271 270 271 271 271 270 270 270 270 271 271 272 273 273 273 272
247 250 250 250 253 255 257 258 261 263 265 266 268 268 266 265 266 268 268 267 267 268 270 269 270 271 272 272 271 271 271 271 271 269 270 270 270 271 272 272 273 273 273 272
251 251 251 253 256 257 259 261 262 263 266 267 268 267 267 264 263 266 269 271 270 269 268 269 271 272 272 272 272 272 272 273 272 270 270 271 271 272 273 273 273 274 274 274
253 253 253 256 258 259 260 260 263 266 268 267 265 265 264 263 263 266 269 271 271 271 271 271 271 272 273 273 273 273 273 273 272 271 272 273 273 273 273 273 273 274 273 273
257 258 258 258 258 259 260 262 266 267 265 264 264 264 265 267 268 270 271 273 274 276 276 276 277 278 277 276 276 276 275 274 273 273 274 274 273 273 274 274 274 274 274 274
257 258 259 258 258 259 261 263 265 265 264 263 261 262 264 267 270 272 275 277 279 280 281 281 281 281 281 281 280 279 279 278 278 277 276 275 275 276 276 275 275 275 276 275
256 259 260 259 260 262 264 265 266 266 266 264 262 264 268 272 275 277 280 282 283 284 284 284 283 284 285 284 284 282 281 280 280 281 281 279 279 278 277 276 276 276 277 276
258 262 263 264 264 264 265 267 267 267 267 267 268 271 274 277 280 282 283 284 286 290 290 288 287 288 289 288 286 286 285 284 285 286 285 283 282 282 280 278 277 278 278 278
259 259 260 261 261 260 261 264 267 270 273 274 274 275 277 280 283 285 287 286 288 293 293 292 293 294 294 293 291 290 289 290 290 290 290 288 285 285 285 283 281 280 279 280
259 259 256 258 261 261 266 272 275 276 275 273 273 277 282 283 284 287 290 288 287 292 295 297 300 301 300 298 297 295 294 292 292 293 293 293 292 291 291 289 285 284 283 283
254 260 264 267 266 268 274 277 278 276 276 278 278 282 286 288 289 291 293 292 290 292 298 303 305 305 304 303 300 299 299 297 296 296 296 297 298 297 295 294 291 288 286 286
260 264 269 272 273 277 282 285 284 283 284 284 285 287 290 292 293 294 295 296 296 296 299 301 303 305 305 304 304 303 302 301 301 300 300 301 302 303 300 296 293 290 288 289
Height
5824 5827 5828 5830 5832 5835 5837 5839 5842 5845 5845 5846 5847 5848 5849 5850 5851 5852 5853 5854 5855 5856 5856 5855 5855 5855 5855 5854 5854 5854 5853 5853 5852 5852 5850 5850 5849 5849 5849 5849 5849 5848 5848 5847
5815 5818 5819 5821 5824 5826 5828 5831 5832 5834 5836 5837 5838 5839 5840 5842 5843 5845 5846 5847 5848 5848 5848 5848 5848 5848 5848 5847 5847 5846 5846 5846 5846 5845 5844 5843 5842 5842 5841 5841 5841 5841 5840 5840
5806 5809 5810 5812 5815 5817 5819 5821 5823 5824 5827 5827 5828 5830 5832 5833 5835 5836 5837 5838 5839 5840 5840 5840 5840 5840 5840 5840 5840 5839 5839 5838 5838 5837 5836 5835 5835 5834 5834 5834 5833 5833 5832 5831
5797 5799 5801 5806 5806 5807 5809 5811 5813 5814 5816 5817 5819 5821 5822 5824 5825 5827 5828 5829 5830 5831 5831 5832 5832 5832 5832 5832 5831 5831 5830 5830 5830 5829 5827 5826 5826 5826 5826 5825 5825 5824 5823 5823
5787 5789 5791 5794 5796 5798 5799 5801 5803 5804 5806 5807 5809 5810 5812 5813 5815 5817 5819 5820 5821 5822 5822 5823 5823 5823 5823 5823 5823 5822 5822 5822 5821 5820 5819 5818 5817 5817 5817 5816 5816 5815 5814 5813
5777 5780 5782 5785 5786 5787 5790 5791 5793 5794 5796 5798 5799 5801 5802 5803 5805 5807 5808 5810 5811 5812 5813 5813 5813 5813 5814 5814 5813 5813 5812 5812 5811 5811 5810 5809 5808 5808 5807 5806 5805 5804 5803 5803
5767 5769 5772 5773 5775 5778 5781 5782 5783 5784 5786 5788 5789 5791 5792 5793 5795 5796 5798 5799 5800 5802 5803 5803 5803 5804 5803 5803 5803 5803 5802 5801 5801 5800 5800 5799 5798 5797 5797 5796 5795 5793 5792 5791
5758 5760 5764 5763 5765 5768 5769 5771 5773 5774 5776 5777 5779 5780 5782 5783 5784 5786 5787 5789 5790 5791 5792 5792 5793 5793 5793 5792 5792 5792 5791 5791 5790 5789 5788 5788 5787 5786 5785 5785 5784 5782 5780 5779
5749 5752 5753 5754 5755 5757 5759 5761 5762 5764 5765 5767 5769 5770 5772 5773 5774 5775 5777 5778 5779 5780 5781 5781 5781 5781 5782 5781 5781 5780 5780 5779 5778 5777 5777 5777 5776 5775 5774 5773 5772 5771 5769 5769
5739 5741 5743 5744 5746 5747 5749 5751 5752 5754 5756 5757 5759 5760 5762 5763 5764 5765 5766 5767 5768 5769 5769 5770 5770 5770 5770 5769 5769 5768 5768 5767 5767 5766 5765 5764 5764 5763 5763 5762 5761 5759 5758 5757
5729 5732 5733 5735 5736 5738 5740 5741 5743 5744 5746 5747 5748 5750 5751 5752 5754 5754 5755 5756 5757 5757 5758 5758 5758 5758 5758 5757 5757 5756 5756 5755 5754 5754 5753 5753 5752 5751 5750 5750 5749 5748 5747 5746
5721 5723 5724 5727 5728 5729 5731 5732 5733 5735 5736 5737 5738 5740 5741 5742 5743 5744 5744 5745 5745 5745 5746 5746 5746 5746 5746 5745 5745 5744 5744 5743 5742 5742 5741 5741 5740 5740 5738 5738 5737 5737 5736 5735
5712 5713 5715 5717 5719 5720 5721 5723 5724 5726 5727 5728 5729 5730 5731 5731 5732 5733 5733 5734 5734 5734 5734 5734 5734 5735 5734 5733 5732 5732 5732 5731 5730 5730 5729 5729 5728 5728 5727 5727 5726 5725 5724 5724
5703 5705 5707 5709 5710 5711 5712 5714 5715 5717 5718 5719 5720 5720 5721 5721 5722 5722 5723 5723 5723 5723 5723 5723 5723 5723 5722 5722 5721 5721 5720 5720 5719 5719 5718 5717 5717 5716 5715 5715 5714 5713 5713 5712
5696 5697 5699 5700 5701 5703 5704 5706 5707 5708 5709 5710 5710 5711 5711 5712 5712 5712 5712 5712 5712 5712 5712 5712 5712 5711 5711 5710 5710 5709 5709 5709 5708 5708 5707 5706 5705 5705 5704 5703 5703 5702 5701 5700
5688 5689 5691 5693 5694 5695 5696 5698 5699 5700 5700 5701 5701 5702 5702 5702 5702 5702 5702 5702 5702 5702 5701 5701 5701 5701 5700 5700 5699 5699 5698 5698 5697 5697 5696 5695 5695 5694 5693 5692 5692 5691 5690 5689
5681 5683 5684 5686 5687 5688 5689 5690 5691 5692 5693 5693 5693 5693 5693 5693 5693 5694 5693 5693 5693 5693 5692 5692 5691 5691 5690 5690 5689 5688 5688 5687 5687 5686 5685 5685 5684 5684 5683 5682 5681 5680 5680 5679
5676 5677 5679 5680 5681 5682 5683 5683 5684 5685 5685 5685 5685 5685 5685 5685 5685 5686 5685 5685 5684 5684 5683 5683 5682 5682 5681 5680 5679 5678 5678 5677 5676 5676 5675 5675 5674 5673 5673 5672 5671 5670 5670 5669
5671 5672 5673 5674 5675 5675 5676 5677 5677 5678 5678 5678 5678 5678 5678 5678 5678 5678 5678 5677 5677 5676 5675 5674 5674 5673 5672 5671 5670 5669 5668 5667 5667 5666 5665 5665 5664 5663 5663 5662 5661 5661 5660 5659
5665 5666 5667 5668 5669 5669 5670 5671 5671 5671 5671 5671 5671 5672 5672 5672 5672 5671 5671 5671 5670 5669 5668 5667 5666 5665 5663 5662 5661 5660 5659 5658 5657 5656 5656 5655 5654 5653 5653 5652 5651 5651 5650 5650
5661 5661 5662 5662 5663 5664 5664 5664 5665 5665 5665 5665 5666 5666 5666 5666 5666 5665 5665 5664 5663 5662 5661 5660 5658 5657 5656 5654 5653 5652 5650 5649 5648 5647 5647 5646 5645 5644 5643 5643 5642 5642 5641 5641
5656 5657 5657 5658 5658 5658 5659 5659 5660 5660 5660 5660 5660 5661 5661 5661 5660 5660 5659 5658 5657 5656 5655 5653 5652 5650 5648 5647 5645 5644 5643 5642 5641 5640 5639 5638 5637 5636 5635 5635 5634 5633 5633 5632
5653 5653 5653 5654 5654 5654 5655 5655 5655 5656 5656 5656 5656 5656 5656 5656 5655 5655 5654 5653 5651 5650 5649 5647 5645 5644 5642 5640 5639 5638 5637 5636 5635 5633 5632 5631 5630 5629 5628 5627 5626 5626 5625 5624
5650 5650 5650 5650 5651 5651 5651 5652 5652 5652 5652 5652 5652 5652 5652 5651 5651 5650 5648 5647 5646 5645 5643 5642 5640 5638 5636 5635 5634 5633 5632 5630 5629 5628 5626 5625 5624 5623 5621 5620 5619 5618 5618 5616
5647 5648 5648 5648 5648 5648 5649 5649 5649 5649 5649 5649 5648 5648 5647 5647 5646 5645 5644 5643 5642 5640 5639 5637 5635 5634 5632 5631 5630 5628 5627 5626 5624 5623 5621 5620 5619 5617 5616 5615 5614 5613 5611 5610
5646 5646 5646 5646 5646 5646 5646 5646 5646 5646 5645 5645 5645 5644 5644 5643 5642 5641 5640 5639 5637 5636 5635 5633 5632 5630 5629 5627 5626 5624 5623 5621 5620 5618 5617 5615 5614 5612 5611 5609 5608 5607 5605 5604
5644 5644 5644 5644 5644 5644 5644 5644 5643 5643 5643 5642 5641 5641 5640 5639 5638 5637 5636 5635 5634 5632 5631 5630 5628 5627 5625 5624 5622 5620 5619 5617 5615 5614 5613 5611 5609 5608 5606 5604 5603 5601 5600 5598